Temperature
22 22 22 22 22 22 22 22 22 21 21 21 21 21 21 20 20 20 20 20 20 20 19 19 19 19 19 19 19 19 19 19 19 19 19 19 19 19 18 18 18 18 18
23 22 22 22 22 22 22 22 21 21 21 21 21 21 21 20 20 20 20 20 20 20 19 19 19 19 19 19 19 19 19 19 19 19 19 19 19 18 18 18 18 18 18
23 22 22 22 22 22 22 21 21 21 21 21 21 21 20 20 20 20 20 20 20 19 19 19 19 19 19 19 19 19 19 18 18 18 18 18 18 18 18 18 18 18 17
23 23 22 22 22 22 22 21 21 21 21 20 20 20 20 20 20 20 20 20 19 19 19 19 19 19 19 19 18 18 18 18 18 18 18 18 18 18 18 18 18 18 17
23 22 22 22 22 21 21 21 21 21 20 20 20 20 20 20 20 20 20 19 19 19 19 19 19 19 19 19 18 18 18 18 18 18 17 18 18 18 18 18 18 17 17
23 22 22 22 21 21 21 21 21 20 20 20 20 20 20 20 20 20 19 19 19 19 19 19 19 19 19 18 18 18 17 17 17 17 17 17 17 18 18 18 18 17 17
23 22 22 21 21 21 21 21 20 20 20 20 20 20 20 20 19 19 19 19 19 19 19 19 19 19 18 18 18 18 17 17 17 17 17 17 17 18 18 18 18 17 17
23 22 21 21 21 21 20 20 20 20 20 20 20 19 19 19 19 19 19 19 19 19 19 19 19 18 18 18 18 18 17 17 17 17 17 17 17 18 18 18 18 17 17
22 22 21 21 21 20 20 20 20 20 20 19 19 19 19 19 19 19 19 19 19 19 19 19 18 18 18 18 18 17 17 17 17 17 17 17 17 17 17 17 17 17 17
21 21 21 21 20 20 20 20 20 19 19 19 19 19 19 19 19 19 19 19 18 18 18 18 18 18 18 18 18 17 17 17 17 17 17 17 17 17 17 17 17 17 17
21 21 21 20 20 20 20 20 19 19 19 19 19 19 19 19 19 19 18 18 18 18 18 18 18 18 18 18 18 17 17 17 17 17 17 17 17 17 17 17 17 17 17
20 20 20 20 20 20 20 19 19 19 19 19 19 19 19 19 19 18 18 18 18 18 18 18 18 18 18 18 18 17 17 17 17 17 17 17 17 17 17 17 17 17 17
21 20 20 20 20 20 19 19 19 19 19 18 18 18 18 18 18 18 18 18 18 18 18 18 18 18 17 17 17 17 17 17 17 17 17 17 17 17 17 17 17 17 16
20 20 20 20 19 19 19 19 19 19 18 18 18 18 18 18 18 18 18 18 18 18 18 17 17 17 17 17 17 17 17 17 17 17 17 17 17 16 16 17 16 16 16
19 19 19 19 19 19 19 19 18 18 18 18 18 18 18 18 18 18 18 18 17 17 17 17 17 17 17 17 17 17 17 17 17 17 17 16 16 16 16 16 16 16 16
19 19 19 19 19 19 18 18 18 18 18 18 17 18 18 18 17 17 17 17 17 17 17 17 17 17 17 17 17 17 17 17 17 16 16 16 16 16 16 16 16 16 16
19 19 19 19 18 18 18 18 18 18 17 17 17 17 17 17 17 17 17 17 17 17 17 17 17 16 16 16 16 16 16 16 16 16 16 16 16 16 15 15 15 15 15
18 18 18 18 18 18 18 17 17 17 17 17 17 17 17 17 17 17 17 17 16 16 16 16 16 16 16 16 16 16 16 16 16 16 16 16 15 15 15 15 15 15 14
18 17 17 17 17 17 17 17 17 17 17 16 16 16 16 16 16 16 16 16 16 16 16 16 16 16 16 16 15 15 15 15 15 15 15 15 15 15 14 14 14 14 14
17 17 17 16 16 16 16 16 16 16 16 15 15 15 16 16 15 16 16 16 16 16 16 16 16 16 16 15 15 15 15 15 15 14 14 14 14 14 14 14 14 14 13
16 16 16 16 16 15 16 15 15 15 15 15 15 15 15 15 15 15 15 15 15 15 15 15 15 15 15 15 15 14 14 14 14 14 14 14 13 13 13 13 13 13 13
15 16 16 16 16 15 15 15 15 15 14 14 14 14 15 15 15 15 15 15 15 15 15 15 15 15 14 14 14 14 13 13 13 13 13 13 13 13 12 12 12 12 12
14 14 14 15 15 15 15 14 14 14 14 14 14 14 14 14 14 14 14 15 14 14 14 14 14 14 14 14 14 14 13 12 12 12 12 12 12 12 12 12 11 11 11
13 13 14 14 14 14 14 14 14 14 14 14 13 13 13 13 13 13 14 14 14 14 14 14 14 14 14 13 13 13 14 13 12 11 11 11 11 11 11 11 11 11 10
12 12 13 13 13 14 14 14 14 14 13 13 13 13 13 13 13 13 13 13 13 13 13 13 13 13 13 13 13 13 13 13 13 12 11 10 10 10 10 10 10 10 10
12 12 12 12 13 13 13 13 13 13 13 12 12 12 12 12 12 12 12 12 13 13 13 13 13 13 12 12 13 13 13 12 12 12 11 10 10 10 9 9 9 9 9
Wind_Speed
11 15 21 21 20 20 19 19 20 20 21 21 21 22 22 22 21 21 20 19 18 16 15 14 14 15 15 16 17 18 19 19 19 20 19 18 17 17 18 18 17 16 17
15 18 22 22 22 21 20 20 19 19 20 20 20 20 21 20 20 19 18 17 16 15 15 14 14 15 15 16 17 17 18 18 18 18 18 17 17 17 17 16 15 14 16
17 18 22 22 22 22 21 20 20 19 19 19 19 19 19 19 18 18 17 16 15 14 14 14 14 14 14 15 16 16 16 16 17 17 16 14 15 16 17 16 16 15 15
18 19 21 23 22 22 21 21 20 20 19 18 18 18 18 18 17 16 16 15 14 14 13 13 13 13 13 13 14 14 14 14 14 14 12 12 13 16 16 16 15 14 14
16 17 20 24 22 22 21 21 20 20 19 18 18 17 17 17 16 15 15 14 14 13 13 13 12 12 12 12 11 11 11 9 9 10 10 11 13 15 16 15 14 14 13
16 17 21 23 22 21 21 20 20 20 19 18 18 17 17 16 15 15 14 14 13 13 13 12 12 11 10 10 9 8 7 6 7 8 10 11 13 15 15 14 14 13 12
15 14 19 22 21 21 20 20 19 19 18 18 17 17 16 16 15 14 14 13 13 12 12 12 11 10 9 8 7 6 5 4 6 8 11 12 14 15 14 13 13 12 11
16 14 17 20 21 20 20 19 19 19 18 18 17 17 16 16 15 14 13 13 12 12 12 12 11 10 9 7 6 4 3 3 6 8 11 13 15 15 14 13 13 12 11
14 12 12 15 18 19 19 18 18 18 18 17 17 16 16 15 14 14 13 13 12 12 12 12 11 10 8 7 5 4 3 4 5 7 9 12 15 15 14 13 13 12 11
12 11 9 11 13 15 16 17 17 17 17 17 16 16 15 14 14 13 12 12 12 12 12 12 11 10 9 7 6 4 3 3 5 7 8 12 15 15 14 14 13 11 11
11 9 9 9 10 12 13 15 16 16 16 16 15 15 14 12 12 12 11 12 12 12 12 11 11 10 9 7 6 5 3 4 4 6 8 12 15 15 14 13 12 11 11
11 10 8 9 9 10 11 11 11 12 13 13 13 13 12 11 11 11 12 12 12 12 11 11 11 10 8 6 6 5 3 4 4 6 8 13 15 14 14 13 12 11 10
11 9 8 8 8 8 7 9 8 8 9 10 11 12 11 10 9 9 8 9 9 10 9 9 9 8 7 6 5 4 4 4 4 6 8 13 14 14 13 12 11 10 9
11 9 8 7 7 7 7 6 7 5 5 6 9 11 9 6 5 6 6 7 7 6 6 5 5 6 6 7 6 5 4 4 5 6 8 13 14 13 13 12 11 10 8
9 7 7 8 7 5 5 5 5 4 5 6 8 10 10 6 5 5 6 7 7 6 5 4 5 4 4 4 4 5 5 5 6 6 7 11 12 12 12 11 10 9 8
7 7 6 7 7 6 5 4 4 5 6 7 7 9 10 8 6 5 5 5 5 7 7 6 5 3 2 2 2 4 6 7 8 9 9 10 11 11 10 10 9 9 9
5 5 6 6 6 6 5 4 3 4 5 4 5 7 8 8 7 6 4 4 5 7 6 5 4 4 3 3 3 4 5 7 8 10 10 9 10 10 11 11 10 9 9
5 5 4 4 4 4 4 3 2 2 2 3 3 5 6 7 7 5 4 4 5 6 4 3 4 4 3 4 4 3 4 6 8 10 10 10 10 9 10 10 10 9 9
6 5 4 4 3 4 4 3 3 3 4 3 3 4 4 5 6 5 3 3 6 4 3 4 4 5 5 5 5 4 3 4 5 8 9 10 11 11 10 10 10 10 10
6 6 5 4 3 2 3 4 4 4 4 4 3 3 3 3 3 4 3 3 4 3 3 3 5 5 5 5 6 5 4 4 4 5 6 9 10 11 10 9 9 10 11
7 7 5 4 4 2 2 3 3 3 2 2 3 3 3 2 2 2 2 3 3 3 4 5 6 7 5 5 5 5 5 6 6 5 5 6 8 10 12 11 11 10 10
7 6 5 4 3 2 2 2 3 4 2 2 2 3 4 4 3 2 2 2 3 3 4 5 6 4 4 4 4 4 3 3 4 5 4 5 6 8 9 10 11 11 11
9 8 5 5 4 3 4 4 4 3 2 2 2 2 4 5 5 4 3 2 2 3 3 4 5 6 5 3 3 4 4 4 3 2 3 4 4 4 5 8 10 10 10
9 8 7 6 5 4 4 5 5 5 3 3 2 2 3 6 6 5 4 4 2 2 3 3 3 3 5 4 2 1 2 5 4 3 1 2 3 4 4 5 7 8 9
9 8 8 7 7 7 6 6 6 6 4 4 4 5 5 5 6 6 6 5 3 2 3 3 3 3 3 3 2 2 3 3 3 4 4 3 2 2 3 4 6 7 8
8 8 8 8 8 7 7 7 6 7 6 6 6 5 5 4 4 6 7 6 5 4 4 4 4 5 3 3 3 2 3 3 3 3 4 5 3 1 2 2 4 6 7
Wind_Direction
159 161 158 150 143 137 132 126 121 118 116 115 114 113 112 112 114 115 118 119 120 121 121 119 117 115 114 113 113 113 114 115 116 115 113 111 111 114 113 110 107 105 106
154 160 158 152 146 142 137 132 128 124 122 120 118 116 115 115 115 116 117 119 120 122 122 121 120 119 119 117 117 117 119 120 120 119 115 111 109 114 116 113 111 111 109
149 156 157 153 149 145 142 138 134 131 128 126 123 121 120 119 118 119 120 121 123 123 124 123 122 122 122 121 120 121 123 123 122 119 115 109 109 113 117 116 115 113 112
149 153 156 155 151 149 146 143 140 138 136 133 130 128 126 125 124 124 126 127 127 128 128 128 127 127 126 124 123 124 126 128 129 125 122 120 116 118 120 120 119 118 115
146 151 157 156 154 152 149 147 145 144 143 140 138 136 134 132 131 132 133 134 134 134 135 134 133 132 131 129 128 127 128 133 135 131 134 128 124 127 126 126 123 121 120
146 151 157 156 155 154 153 151 150 149 149 147 145 144 142 140 140 141 141 142 143 142 142 141 140 138 137 135 134 130 127 127 130 132 139 140 138 136 134 132 129 127 126
144 146 154 155 154 155 156 155 154 153 153 153 151 150 149 148 149 149 149 149 149 148 148 147 147 146 145 145 141 135 125 124 135 144 147 150 149 146 142 140 137 135 133
141 140 148 154 155 156 158 157 157 156 156 156 156 156 155 154 155 155 156 155 155 154 154 153 154 154 155 157 154 146 130 128 125 143 156 161 160 153 150 147 145 143 141
133 134 139 151 155 157 158 158 157 157 158 158 158 158 159 160 161 163 163 162 161 160 161 161 163 166 167 171 173 169 149 120 119 139 157 164 165 160 157 154 151 150 149
126 132 136 144 151 156 159 161 161 160 161 161 160 160 162 165 166 167 167 168 170 170 171 171 173 177 181 187 194 193 166 129 136 146 159 169 168 166 162 159 158 157 157
129 134 141 143 148 153 158 163 163 165 165 164 165 166 164 165 166 169 172 175 178 179 180 181 185 188 193 203 210 208 180 151 147 154 163 174 171 168 164 162 162 161 160
143 150 151 153 154 153 161 158 161 167 169 168 169 169 167 165 168 171 176 180 184 187 189 192 197 199 202 212 218 217 185 165 167 171 174 177 174 170 166 164 164 164 165
147 147 150 160 158 154 149 150 160 167 171 175 173 171 169 167 172 172 175 183 185 188 191 200 205 207 206 212 217 213 193 174 179 181 179 176 171 169 166 165 165 165 166
143 148 148 154 157 160 152 157 161 163 171 183 183 177 172 169 171 171 171 174 177 183 186 194 204 214 214 213 214 206 193 170 170 169 175 172 169 168 164 162 163 162 161
138 145 153 155 152 152 148 156 158 157 170 182 186 182 179 175 176 170 173 177 184 187 186 197 198 203 213 211 206 182 166 152 142 135 149 155 157 161 159 159 159 160 157
133 146 150 151 148 144 152 164 159 164 178 182 182 187 182 176 173 174 175 171 183 197 196 194 191 179 182 167 164 152 140 134 130 126 124 132 139 143 146 147 146 147 145
126 129 130 143 149 147 148 160 153 156 165 167 169 174 174 170 167 167 168 173 185 193 192 186 178 157 163 159 145 137 132 128 126 124 120 120 124 128 132 134 133 134 134
93 91 111 124 127 138 144 141 115 112 110 113 134 155 164 166 170 167 164 175 178 182 176 174 172 154 154 144 131 131 129 128 127 128 123 119 115 114 120 128 129 129 128
98 97 101 84 91 121 128 119 100 86 79 85 102 112 133 149 159 161 164 170 164 167 176 180 161 145 141 133 124 112 103 111 123 129 123 119 118 116 114 116 119 117 113
84 87 85 86 84 97 102 97 96 88 73 63 76 87 99 125 163 165 159 165 160 166 169 158 140 134 137 134 122 101 82 80 92 108 120 117 115 116 114 110 107 105 104
61 65 72 71 73 72 104 122 115 109 106 86 64 76 90 102 160 163 162 158 157 173 171 154 139 132 131 127 113 99 71 63 74 75 98 111 110 111 109 105 101 100 96
53 53 59 60 73 89 114 128 127 128 115 100 58 55 68 74 62 82 90 146 154 154 147 148 138 134 146 147 136 133 126 84 60 66 81 101 109 111 108 105 103 98 95
39 31 38 38 61 81 101 115 119 111 110 86 46 44 40 65 66 61 70 86 110 140 149 153 149 148 161 171 157 143 153 166 134 61 68 92 105 105 109 113 111 110 105
40 25 23 40 49 59 81 103 116 120 119 104 91 82 60 60 64 59 64 72 85 112 133 148 143 152 156 163 166 133 133 137 146 140 83 73 99 111 117 121 119 119 116
46 36 28 40 42 45 60 78 89 92 88 91 85 78 65 57 54 54 56 61 71 84 91 98 100 116 147 160 156 140 110 101 108 135 150 151 98 90 107 120 126 128 129
47 41 36 40 39 41 54 64 83 94 93 88 80 76 63 55 51 45 53 58 59 63 66 81 94 96 105 120 122 129 138 142 148 131 142 150 141 114 85 99 130 141 146
Height
1517 1520 1523 1525 1527 1528 1530 1531 1533 1534 1536 1537 1539 1541 1543 1545 1546 1548 1549 1550 1552 1553 1554 1555 1556 1557 1558 1558 1559 1560 1561 1561 1562 1563 1563 1564 1564 1565 1565 1566 1566 1566 1566
1515 1519 1522 1525 1527 1529 1530 1532 1534 1535 1537 1539 1540 1542 1544 1546 1548 1549 1550 1552 1553 1554 1555 1556 1557 1558 1558 1559 1560 1561 1562 1563 1564 1564 1565 1566 1566 1567 1567 1567 1568 1568 1568
1515 1519 1522 1525 1527 1529 1531 1533 1535 1536 1538 1540 1541 1543 1545 1547 1548 1550 1551 1552 1554 1555 1556 1557 1558 1558 1559 1560 1561 1562 1563 1564 1565 1566 1567 1567 1568 1568 1568 1569 1569 1569 1570
1515 1518 1521 1524 1527 1529 1531 1534 1535 1537 1539 1541 1542 1544 1546 1548 1549 1550 1552 1553 1554 1555 1556 1557 1558 1559 1560 1561 1562 1563 1564 1565 1566 1567 1568 1569 1569 1569 1569 1570 1570 1571 1571
1515 1518 1522 1525 1528 1530 1532 1534 1536 1538 1540 1541 1543 1545 1547 1548 1549 1551 1552 1553 1554 1555 1556 1557 1559 1560 1561 1562 1563 1564 1565 1566 1567 1568 1569 1569 1570 1570 1571 1571 1571 1572 1572
1514 1518 1522 1525 1528 1531 1533 1535 1537 1539 1540 1542 1544 1545 1547 1549 1550 1551 1552 1553 1555 1556 1557 1558 1559 1560 1561 1563 1564 1565 1566 1567 1568 1568 1569 1570 1571 1571 1571 1572 1572 1573 1573
1514 1518 1522 1526 1529 1531 1534 1536 1538 1539 1541 1543 1544 1546 1547 1549 1550 1551 1553 1554 1555 1556 1557 1558 1559 1560 1562 1563 1564 1566 1566 1567 1568 1569 1570 1570 1571 1572 1572 1573 1573 1573 1574
1514 1517 1522 1525 1528 1531 1534 1536 1538 1540 1542 1543 1545 1546 1547 1549 1550 1551 1553 1554 1555 1556 1557 1558 1559 1561 1562 1564 1565 1566 1567 1568 1569 1569 1570 1571 1571 1572 1573 1573 1573 1574 1574
1515 1518 1521 1525 1528 1531 1533 1536 1538 1540 1542 1543 1545 1546 1547 1549 1550 1551 1552 1554 1554 1555 1557 1558 1559 1561 1562 1564 1565 1566 1567 1568 1569 1570 1570 1571 1572 1572 1573 1573 1573 1574 1574
1515 1518 1521 1524 1527 1530 1533 1535 1537 1540 1541 1543 1544 1546 1547 1548 1549 1551 1552 1553 1554 1555 1556 1557 1559 1560 1562 1563 1565 1566 1567 1568 1569 1570 1570 1571 1572 1572 1573 1573 1573 1574 1574
1514 1518 1521 1524 1527 1529 1532 1534 1537 1539 1541 1542 1543 1545 1546 1547 1548 1549 1551 1552 1553 1554 1555 1557 1558 1560 1561 1562 1564 1565 1566 1567 1568 1569 1570 1571 1571 1572 1572 1572 1573 1573 1574
1513 1517 1520 1523 1525 1528 1530 1532 1535 1537 1539 1541 1542 1543 1545 1546 1547 1548 1550 1551 1552 1553 1554 1556 1557 1559 1560 1561 1563 1564 1566 1566 1567 1568 1569 1570 1571 1571 1571 1572 1572 1572 1573
1513 1516 1519 1523 1525 1526 1528 1530 1533 1535 1538 1539 1540 1542 1543 1544 1545 1546 1548 1549 1550 1551 1553 1554 1556 1557 1559 1560 1562 1563 1564 1565 1566 1567 1568 1569 1569 1570 1570 1571 1571 1571 1572
1513 1516 1518 1521 1523 1526 1528 1529 1531 1533 1535 1537 1538 1540 1541 1542 1543 1544 1545 1546 1548 1549 1551 1552 1554 1556 1557 1559 1560 1562 1563 1564 1565 1566 1567 1567 1568 1569 1569 1570 1570 1570 1570
1512 1515 1516 1519 1522 1524 1526 1528 1530 1531 1533 1534 1536 1537 1538 1539 1541 1542 1543 1544 1545 1547 1548 1550 1552 1553 1555 1556 1558 1559 1561 1562 1563 1564 1565 1565 1566 1567 1568 1568 1568 1569 1569
1512 1514 1515 1518 1520 1522 1524 1526 1527 1529 1531 1532 1534 1535 1537 1537 1538 1540 1541 1542 1543 1545 1546 1548 1549 1551 1553 1554 1555 1557 1558 1560 1561 1562 1563 1564 1565 1565 1566 1566 1567 1567 1567
1512 1513 1515 1516 1518 1520 1522 1524 1526 1527 1528 1529 1530 1532 1533 1534 1536 1537 1538 1539 1540 1541 1543 1545 1547 1549 1550 1551 1553 1554 1556 1557 1559 1560 1561 1562 1562 1563 1564 1564 1565 1565 1565
1512 1513 1514 1515 1516 1518 1520 1522 1522 1524 1525 1526 1527 1529 1530 1531 1532 1534 1534 1536 1537 1538 1540 1541 1543 1545 1547 1549 1550 1552 1553 1555 1556 1557 1558 1559 1560 1561 1562 1563 1563 1563 1563
1511 1512 1513 1514 1515 1516 1517 1519 1519 1521 1521 1522 1524 1526 1527 1527 1529 1530 1531 1533 1534 1535 1537 1538 1540 1541 1544 1545 1547 1549 1550 1552 1553 1555 1556 1557 1558 1559 1560 1561 1561 1561 1561
1510 1511 1512 1513 1513 1514 1515 1515 1517 1518 1519 1520 1521 1523 1524 1525 1526 1527 1528 1529 1531 1532 1533 1535 1537 1538 1541 1542 1544 1546 1548 1550 1551 1552 1553 1555 1556 1557 1558 1559 1559 1559 1559
1509 1509 1510 1511 1511 1512 1512 1513 1514 1514 1516 1517 1518 1521 1522 1523 1523 1524 1524 1525 1527 1528 1530 1531 1533 1534 1537 1539 1541 1544 1546 1548 1549 1550 1551 1552 1553 1555 1556 1557 1557 1557 1557
1509 1509 1509 1509 1510 1511 1511 1512 1513 1514 1515 1516 1516 1518 1519 1519 1520 1520 1520 1522 1523 1525 1526 1527 1528 1530 1533 1535 1537 1540 1543 1547 1547 1548 1549 1550 1551 1552 1553 1554 1555 1555 1555
1510 1510 1508 1508 1509 1509 1510 1510 1512 1513 1514 1514 1515 1515 1516 1516 1517 1517 1518 1518 1520 1521 1522 1524 1525 1527 1529 1532 1534 1536 1538 1540 1544 1546 1547 1548 1549 1550 1551 1552 1553 1553 1554
1511 1511 1510 1509 1509 1509 1509 1510 1510 1510 1511 1511 1513 1513 1514 1514 1515 1515 1515 1516 1518 1519 1519 1521 1522 1524 1526 1527 1530 1532 1534 1535 1538 1542 1545 1546 1548 1549 1550 1551 1551 1552 1552
1511 1511 1511 1510 1510 1509 1508 1509 1508 1509 1509 1510 1511 1512 1513 1513 1513 1514 1514 1514 1516 1516 1517 1518 1519 1521 1522 1524 1526 1528 1530 1532 1533 1535 1539 1543 1545 1547 1548 1549 1550 1551 1551
1512 1511 1511 1510 1509 1509 1508 1508 1508 1508 1509 1509 1510 1511 1511 1511 1512 1513 1513 1514 1514 1514 1515 1516 1517 1518 1519 1521 1523 1524 1525 1527 1529 1532 1534 1538 1542 1545 1547 1548 1549 1549 1550